Location: Ipswich
(52.0579°N, 1.1528°E)
Time: 09:05:47
(UTC+01:00)

ISS - Pass Details

Date: 05 May 2026
Orbit: 414 x 424 km, 51.6° (Epoch: 8 May)

Event Time Altitude Azimuth Distance (km) Brightness Sun altitude
Exits shadow 03:51:06 - 279° (W) 1,814 -0.9 -11.5°
Reaches altitude 10° 03:51:53 10° 277° (W) 1,499 -1.3 -11.4°
Maximum altitude 03:55:09 51° 200° (SSW) 532 -3.6 -11.0°
Drops below altitude 10° 03:58:26 10° 123° (ESE) 1,500 -0.8 -10.7°
Sets 04:00:34 0° 118° (ESE) 2,364 0.3 -10.4°
